This is the latest recevied weather packets stored in our database for station/object EB2EMZ-14. If no packets are shown the sender has not sent any weather packets the latest 1 day(s).
| Time | Temp. | Humidity | Pressure | Rain* | Wind** | Luminosity | Snow |
|---|---|---|---|---|---|---|---|
| 1777987209 | 14.44° C | 76% | 1011.8 hPa | 1.02 mm | 0 m/s | 0 W/m² | - |
| 1777986908 | 13.89° C | 78% | 1011.8 hPa | 1.02 mm | 0 m/s | 0 W/m² | - |
| 1777986608 | 12.78° C | 81% | 1011.7 hPa | 1.52 mm | 0 m/s | 0 W/m² | - |
| 1777986309 | 11.67° C | 81% | 1011.5 hPa | 1.52 mm | 0 m/s | 0 W/m² | - |
| 1777986008 | 11.11° C | 82% | 1011.7 hPa | 1.52 mm | 0.45 m/s, 116° | 0 W/m² | - |
| 1777985708 | 10° C | 82% | 1011.7 hPa | 1.52 mm | 0.45 m/s, 340° | 0 W/m² | - |
| 1777985409 | 9.44° C | 82% | 1011.7 hPa | 1.52 mm | 0 m/s | 0 W/m² | - |
| 1777985108 | 8.89° C | 82% | 1011.7 hPa | 1.52 mm | 0.45 m/s, 4° | 0 W/m² | - |
| 1777984810 | 8.89° C | 81% | 1011.8 hPa | 1.52 mm | 0.45 m/s, 8° | 0 W/m² | - |
| 1777984510 | 8.89° C | 79% | 1012 hPa | 2.03 mm | 0 m/s | 0 W/m² | - |
| 1777984210 | 9.44° C | 77% | 1012.2 hPa | 1.52 mm | 0 m/s | 0 W/m² | - |
| 1777983910 | 9.44° C | 76% | 1012.3 hPa | 1.02 mm | 0 m/s | 0 W/m² | - |
| 1777983612 | 10° C | 76% | 1012.4 hPa | 1.02 mm | 0 m/s | 0 W/m² | - |
| 1777983309 | 10° C | 75% | 1012.3 hPa | 1.02 mm | 0 m/s | 0 W/m² | - |
| 1777983015 | 10.56° C | 74% | 1012.2 hPa | 0.51 mm | 0 m/s | 0 W/m² | - |
| 1777982709 | 10.56° C | 74% | 1012.1 hPa | 0.51 mm | 0 m/s | 0 W/m² | - |
| 1777982410 | 11.11° C | 72% | 1011.9 hPa | 0.51 mm | 0 m/s | 0 W/m² | - |
| 1777982110 | 11.11° C | 71% | 1011.8 hPa | 0.51 mm | 0 m/s | 0 W/m² | - |
| 1777981811 | 11.67° C | 69% | 1011.8 hPa | 0.51 mm | 0 m/s | 0 W/m² | - |
| 1777981509 | 13.33° C | 66% | 1011.8 hPa | 0.51 mm | 0.45 m/s, 0° | 0 W/m² | - |
| 1777981210 | 15° C | 64% | 1011.6 hPa | 0.51 mm | 0.45 m/s, 350° | 0 W/m² | - |
| 1777980909 | 16.67° C | 62% | 1011.7 hPa | 0 mm | 0.45 m/s, 0° | 0 W/m² | - |
| 1777980610 | 17.22° C | 64% | 1011.9 hPa | 0 mm | 0.45 m/s, 3° | 0 W/m² | - |
| 1777980309 | 16.11° C | 66% | 1011.4 hPa | 0 mm | 0 m/s | 0 W/m² | - |
| 1777980008 | 15.56° C | 66% | 1011.4 hPa | 0 mm | 0 m/s | 0 W/m² | - |
* Rain latest hour (hover to see other rain measurements)
** Current wind speed in m/s (hover to see current wind gust speed)